EN

Hourly Weather Aberdare

Today, 13 June, Sunday

Time Temperature Precipitation Wind Pressure Humidity
00:00 +10°C° 0 mm 2 mps 737 mmHg 87%
01:00 +10°C° 0 mm 2 mps 737 mmHg 87%
02:00 +11°C° 0 mm 1 mps 736 mmHg 88%
03:00 +11°C° 0 mm 1 mps 736 mmHg 88%
04:00 +12°C° 0 mm 1 mps 737 mmHg 87%
05:00 +13°C° 0 mm 1 mps 737 mmHg 85%
06:00 +14°C° 0 mm 1 mps 737 mmHg 84%
07:00 +15°C° 0 mm 1 mps 737 mmHg 81%
08:00 +18°C° 0 mm 1 mps 737 mmHg 79%
09:00 +18°C° 0 mm 2 mps 737 mmHg 76%
10:00 +19°C° 0 mm 2 mps 737 mmHg 75%
11:00 +20°C° 0 mm 2 mps 737 mmHg 73%
12:00 +21°C° 0 mm 2 mps 737 mmHg 72%
13:00 +21°C° 0 mm 2 mps 737 mmHg 72%
14:00 +21°C° 0 mm 2 mps 736 mmHg 72%
15:00 +23°C° 0 mm 2 mps 736 mmHg 73%
16:00 +21°C° 0 mm 2 mps 736 mmHg 76%
17:00 +20°C° 0 mm 2 mps 735 mmHg 79%
18:00 +20°C° 0 mm 3 mps 735 mmHg 81%
19:00 +18°C° 0 mm 2 mps 735 mmHg 84%
20:00 +17°C° 0 mm 2 mps 735 mmHg 87%
21:00 +15°C° 0 mm 1 mps 735 mmHg 90%
22:00 +15°C° 0 mm 1 mps 734 mmHg 89%
23:00 +14°C° 0 mm 1 mps 734 mmHg 88%

Tomorrow, 14 June, Monday

Time Temperature Precipitation Wind Pressure Humidity
00:00 +14°C° 0 mm 1 mps 734 mmHg 87%
01:00 +13°C° 0 mm 1 mps 734 mmHg 88%
02:00 +13°C° 0 mm 2 mps 734 mmHg 89%
03:00 +12°C° 0 mm 2 mps 733 mmHg 91%
04:00 +13°C° 0 mm 1 mps 733 mmHg 89%
05:00 +14°C° 0 mm 1 mps 733 mmHg 88%
06:00 +14°C° 0 mm 1 mps 733 mmHg 87%
07:00 +15°C° 0 mm 1 mps 734 mmHg 83%
08:00 +17°C° 0 mm 2 mps 734 mmHg 80%
09:00 +18°C° 0 mm 2 mps 734 mmHg 77%
10:00 +18°C° 0 mm 3 mps 734 mmHg 76%
11:00 +19°C° 0 mm 3 mps 734 mmHg 76%
12:00 +19°C° 0 mm 4 mps 734 mmHg 76%
13:00 +19°C° 0 mm 4 mps 734 mmHg 75%
14:00 +20°C° 0 mm 4 mps 734 mmHg 74%
15:00 +20°C° 0 mm 4 mps 734 mmHg 74%
16:00 +19°C° 0 mm 4 mps 734 mmHg 76%
17:00 +18°C° 0 mm 3 mps 734 mmHg 79%
18:00 +17°C° 0 mm 3 mps 734 mmHg 81%
19:00 +14°C° 0 mm 3 mps 734 mmHg 84%
20:00 +14°C° 0 mm 2 mps 734 mmHg 87%
21:00 +12°C° 0 mm 2 mps 734 mmHg 91%
22:00 +10°C° 0 mm 2 mps 734 mmHg 90%
23:00 +9°C° 0 mm 2 mps 734 mmHg 90%

Day after tomorrow, 15 June, Tuesday

Time Temperature Precipitation Wind Pressure Humidity
00:00 +9°C° 0 mm 2 mps 734 mmHg 89%
01:00 +8°C° 0 mm 2 mps 734 mmHg 89%
02:00 +9°C° 0 mm 1 mps 734 mmHg 88%
03:00 +9°C° 0 mm 1 mps 734 mmHg 87%
04:00 +10°C° 0 mm 1 mps 734 mmHg 87%
05:00 +10°C° 0 mm 1 mps 734 mmHg 86%
06:00 +11°C° 0 mm 1 mps 734 mmHg 85%
07:00 +12°C° 0 mm 1 mps 734 mmHg 81%
08:00 +14°C° 0 mm 1 mps 733 mmHg 77%
09:00 +15°C° 0 mm 2 mps 733 mmHg 74%
10:00 +16°C° 0 mm 2 mps 733 mmHg 71%
11:00 +17°C° 0 mm 2 mps 733 mmHg 68%
12:00 +18°C° 0 mm 2 mps 733 mmHg 66%
13:00 +18°C° 0 mm 2 mps 732 mmHg 65%
14:00 +19°C° 0 mm 2 mps 732 mmHg 64%
15:00 +19°C° 0 mm 2 mps 732 mmHg 63%
16:00 +19°C° 0 mm 2 mps 731 mmHg 67%
17:00 +18°C° 0 mm 2 mps 731 mmHg 72%
18:00 +18°C° 0 mm 2 mps 730 mmHg 76%
19:00 +16°C° 0 mm 2 mps 730 mmHg 80%
20:00 +14°C° 0 mm 1 mps 730 mmHg 83%
21:00 +12°C° 0 mm 1 mps 729 mmHg 87%
22:00 +12°C° 0 mm 1 mps 729 mmHg 86%
23:00 +11°C° 0 mm 1 mps 729 mmHg 85%

16 June, Wednesday

Time Temperature Precipitation Wind Pressure Humidity
00:00 +11°C° 0 mm 1 mps 729 mmHg 84%
01:00 +10°C° 0 mm 1 mps 728 mmHg 85%
02:00 +10°C° 0 mm 1 mps 728 mmHg 86%
03:00 +10°C° 0 mm 1 mps 727 mmHg 87%
04:00 +11°C° 0 mm 1 mps 727 mmHg 86%
05:00 +12°C° 0 mm 1 mps 727 mmHg 85%
06:00 +13°C° 0 mm 1 mps 727 mmHg 85%
07:00 +14°C° 0 mm 1 mps 727 mmHg 81%
08:00 +16°C° 0 mm 1 mps 727 mmHg 77%
09:00 +18°C° 0 mm 1 mps 727 mmHg 74%
10:00 +19°C° 0 mm 1 mps 727 mmHg 72%
11:00 +19°C° 0 mm 2 mps 727 mmHg 71%
12:00 +19°C° 0 mm 2 mps 727 mmHg 70%
13:00 +19°C° 0 mm 2 mps 726 mmHg 70%
14:00 +20°C° 0 mm 2 mps 726 mmHg 70%
15:00 +20°C° 0 mm 2 mps 726 mmHg 70%
16:00 +20°C° 0.1 mm 2 mps 726 mmHg 73%
17:00 +19°C° 0.1 mm 2 mps 726 mmHg 75%
18:00 +19°C° 0.1 mm 2 mps 726 mmHg 78%
19:00 +18°C° 0.1 mm 2 mps 726 mmHg 83%
20:00 +16°C° 0.1 mm 2 mps 725 mmHg 88%
21:00 +15°C° 0.1 mm 1 mps 725 mmHg 93%
22:00 +15°C° 0.1 mm 1 mps 725 mmHg 93%
23:00 +14°C° 0.1 mm 2 mps 725 mmHg 94%

17 June, Thursday

Time Temperature Precipitation Wind Pressure Humidity
00:00 +14°C° 0.1 mm 2 mps 725 mmHg 94%
01:00 +14°C° 0 mm 2 mps 725 mmHg 94%
02:00 +14°C° 0 mm 2 mps 725 mmHg 94%
03:00 +14°C° 0 mm 2 mps 725 mmHg 94%
04:00 +14°C° 0 mm 2 mps 725 mmHg 94%
05:00 +14°C° 0 mm 2 mps 725 mmHg 94%
06:00 +14°C° 0 mm 2 mps 725 mmHg 94%
07:00 +14°C° 0.3 mm 2 mps 725 mmHg 93%
08:00 +14°C° 0.3 mm 2 mps 725 mmHg 92%
09:00 +14°C° 0.3 mm 2 mps 725 mmHg 92%
10:00 +14°C° 1.1 mm 2 mps 726 mmHg 92%
11:00 +14°C° 1.1 mm 2 mps 726 mmHg 93%
12:00 +13°C° 1.1 mm 3 mps 726 mmHg 94%
13:00 +13°C° 0.6 mm 3 mps 726 mmHg 93%
14:00 +14°C° 0.6 mm 2 mps 727 mmHg 92%
15:00 +14°C° 0.6 mm 2 mps 727 mmHg 91%
16:00 +13°C° 0.1 mm 3 mps 727 mmHg 89%
17:00 +13°C° 0.1 mm 3 mps 728 mmHg 88%
18:00 +14°C° 0.1 mm 3 mps 728 mmHg 86%
19:00 +13°C° 0 mm 3 mps 728 mmHg 85%
20:00 +12°C° 0 mm 3 mps 729 mmHg 85%
21:00 +11°C° 0 mm 3 mps 729 mmHg 84%
22:00 +11°C° 0 mm 3 mps 729 mmHg 82%
23:00 +10°C° 0 mm 3 mps 729 mmHg 81%

18 June, Friday

Time Temperature Precipitation Wind Pressure Humidity
00:00 +10°C° 0 mm 3 mps 729 mmHg 79%
01:00 +10°C° 0 mm 3 mps 729 mmHg 79%
02:00 +10°C° 0 mm 3 mps 729 mmHg 79%
03:00 +10°C° 0 mm 3 mps 729 mmHg 79%
04:00 +10°C° 0.1 mm 3 mps 729 mmHg 80%
05:00 +10°C° 0.1 mm 3 mps 729 mmHg 82%
06:00 +10°C° 0.1 mm 4 mps 729 mmHg 83%
07:00 +10°C° 0.3 mm 4 mps 729 mmHg 87%
08:00 +10°C° 0.3 mm 4 mps 729 mmHg 90%
09:00 +10°C° 0.3 mm 4 mps 729 mmHg 93%
10:00 +9°C° 0.6 mm 5 mps 729 mmHg 93%
11:00 +9°C° 0.6 mm 5 mps 728 mmHg 94%
12:00 +10°C° 0.6 mm 5 mps 728 mmHg 95%
13:00 +10°C° 0.6 mm 5 mps 728 mmHg 94%
14:00 +11°C° 0.6 mm 4 mps 728 mmHg 94%
15:00 +11°C° 0.6 mm 4 mps 728 mmHg 94%
16:00 +10°C° 1.2 mm 4 mps 728 mmHg 94%
17:00 +10°C° 1.2 mm 3 mps 728 mmHg 95%
18:00 +10°C° 1.2 mm 3 mps 728 mmHg 95%
19:00 +10°C° 0.6 mm 3 mps 728 mmHg 95%
20:00 +9°C° 0.6 mm 2 mps 728 mmHg 95%
21:00 +9°C° 0.6 mm 2 mps 728 mmHg 95%
22:00 +9°C° 0.1 mm 2 mps 728 mmHg 95%
23:00 +10°C° 0.1 mm 1 mps 728 mmHg 96%
Show more